UAL1720 KDEN-KIAH

Flight info

Callsign UAL1720
Flight time N/A
Altitude 41000
Route SLEEK2 SLEEK NOSEW MQP GUSHR3
Aircraft B772/H-SDE2E3FGHIJ5LORVWXY/LB1D1

Departure

Time 2026-05-07 03:42
Airport Denver International Airport (KDEN)

Arrival

Time N/A
Airport George Bush Intercontinental Airport (KIAH)
Time Latitude Longitude Altitude Speed Heading
2026-05-07 03:06 39.85808 -104.67546 5375 ft 0 kts
2026-05-07 03:26 39.85804 -104.67546 5384 ft 3 kts
2026-05-07 03:26 39.85777 -104.67547 5381 ft 4 kts 359°
2026-05-07 03:26 39.85754 -104.67546 5382 ft 4 kts 18°
2026-05-07 03:26 39.85743 -104.67552 5383 ft 4 kts 44°
2026-05-07 03:27 39.85735 -104.67567 5383 ft 4 kts 80°
2026-05-07 03:27 39.85733 -104.67601 5384 ft 3 kts 91°
2026-05-07 03:27 39.85733 -104.67605 5384 ft 0 kts 91°
2026-05-07 03:31 39.85733 -104.67589 5380 ft 7 kts 91°
2026-05-07 03:31 39.85732 -104.67513 5381 ft 8 kts 91°
2026-05-07 03:32 39.85733 -104.67438 5382 ft 8 kts 88°
2026-05-07 03:32 39.85732 -104.67363 5384 ft 8 kts 91°
2026-05-07 03:32 39.85732 -104.67287 5384 ft 8 kts 90°
2026-05-07 03:32 39.85725 -104.67209 5384 ft 11 kts 105°
2026-05-07 03:33 39.85680 -104.67079 5382 ft 17 kts 110°
2026-05-07 03:33 39.85662 -104.66923 5381 ft 17 kts 92°
2026-05-07 03:33 39.85660 -104.66765 5385 ft 17 kts 90°
2026-05-07 03:33 39.85660 -104.66607 5385 ft 17 kts 86°
2026-05-07 03:34 39.85678 -104.66483 5381 ft 13 kts 85°
2026-05-07 03:34 39.85679 -104.66364 5387 ft 12 kts 90°
2026-05-07 03:34 39.85680 -104.66288 5387 ft 8 kts 83°
2026-05-07 03:34 39.85717 -104.66239 5386 ft 11 kts 13°
2026-05-07 03:35 39.85850 -104.66233 5391 ft 21 kts
2026-05-07 03:35 39.85997 -104.66231 5390 ft 21 kts
2026-05-07 03:35 39.86143 -104.66229 5388 ft 21 kts 360°
2026-05-07 03:35 39.86292 -104.66228 5386 ft 21 kts
2026-05-07 03:36 39.86402 -104.66226 5386 ft 14 kts
2026-05-07 03:36 39.86478 -104.66217 5383 ft 8 kts 24°
2026-05-07 03:36 39.86491 -104.66203 5375 ft 0 kts 47°
2026-05-07 03:36 39.86497 -104.66178 5382 ft 5 kts 79°
2026-05-07 03:37 39.86499 -104.66129 5387 ft 6 kts 89°
2026-05-07 03:37 39.86499 -104.66034 5378 ft 15 kts 90°
2026-05-07 03:37 39.86498 -104.65886 5374 ft 16 kts 90°
2026-05-07 03:37 39.86497 -104.65737 5373 ft 16 kts 90°
2026-05-07 03:38 39.86495 -104.65587 5372 ft 16 kts 90°
2026-05-07 03:38 39.86494 -104.65439 5369 ft 16 kts 90°
2026-05-07 03:38 39.86493 -104.65291 5366 ft 16 kts 90°
2026-05-07 03:38 39.86493 -104.65142 5363 ft 16 kts 91°
2026-05-07 03:39 39.86491 -104.64993 5363 ft 16 kts 91°
2026-05-07 03:39 39.86490 -104.64843 5359 ft 16 kts 90°
2026-05-07 03:39 39.86490 -104.64690 5356 ft 17 kts 90°
2026-05-07 03:39 39.86489 -104.64533 5353 ft 17 kts 90°
2026-05-07 03:40 39.86486 -104.64377 5351 ft 17 kts 91°
2026-05-07 03:40 39.86485 -104.64274 5352 ft 17 kts 89°
2026-05-07 03:40 39.86486 -104.64171 5349 ft 7 kts 89°
2026-05-07 03:40 39.86482 -104.64133 5351 ft 4 kts 122°
2026-05-07 03:41 39.86438 -104.64131 5350 ft 13 kts 181°
2026-05-07 03:41 39.86167 -104.64135 5354 ft 71 kts 180°
2026-05-07 03:41 39.85439 -104.64144 5360 ft 137 kts 180°
2026-05-07 03:41 39.84726 -104.64154 5371 ft 170 kts 180°
2026-05-07 03:42 39.83504 -104.64178 5913 ft 178 kts 181°
2026-05-07 03:42 39.82262 -104.64203 6720 ft 179 kts 182°
2026-05-07 03:42 39.80959 -104.64218 7197 ft 194 kts 183°
2026-05-07 03:42 39.79537 -104.64236 7359 ft 214 kts 183°
2026-05-07 03:43 39.77996 -104.64254 7500 ft 236 kts 182°
2026-05-07 03:43 39.76279 -104.64273 7672 ft 256 kts 182°
2026-05-07 03:43 39.74441 -104.64292 7903 ft 273 kts 182°
2026-05-07 03:43 39.72495 -104.64312 8276 ft 283 kts 183°
2026-05-07 03:44 39.70490 -104.64334 8765 ft 291 kts 183°
2026-05-07 03:44 39.68439 -104.64357 9279 ft 297 kts 183°
2026-05-07 03:44 39.66359 -104.64381 9801 ft 302 kts 184°
2026-05-07 03:44 39.64231 -104.64250 9986 ft 312 kts 168°
2026-05-07 03:45 39.62149 -104.63244 10106 ft 328 kts 158°
2026-05-07 03:45 39.60010 -104.62010 10244 ft 345 kts 157°
2026-05-07 03:45 39.57785 -104.60726 10419 ft 363 kts 157°
2026-05-07 03:45 39.55427 -104.59378 10843 ft 374 kts 157°
2026-05-07 03:46 39.53011 -104.58011 11432 ft 383 kts 157°
2026-05-07 03:46 39.50545 -104.56627 12169 ft 388 kts 157°
2026-05-07 03:46 39.48043 -104.55231 12965 ft 394 kts 157°
2026-05-07 03:46 39.45504 -104.53821 13778 ft 399 kts 157°
2026-05-07 03:47 39.42932 -104.52396 14503 ft 405 kts 156°
2026-05-07 03:47 39.40354 -104.50970 15258 ft 408 kts 156°
2026-05-07 03:47 39.37731 -104.49520 16027 ft 411 kts 156°
2026-05-07 03:47 39.35091 -104.48062 16760 ft 415 kts 156°
2026-05-07 03:48 39.32418 -104.46587 17441 ft 419 kts 156°
2026-05-07 03:48 39.29718 -104.45097 18126 ft 423 kts 156°
2026-05-07 03:48 39.26986 -104.43591 18762 ft 428 kts 155°
2026-05-07 03:48 39.24236 -104.42078 19324 ft 431 kts 155°
2026-05-07 03:49 39.21506 -104.40573 19876 ft 435 kts 155°
2026-05-07 03:49 39.18737 -104.38947 20405 ft 438 kts 153°
2026-05-07 03:49 39.15963 -104.37266 20966 ft 442 kts 153°
2026-05-07 03:49 39.13130 -104.35669 21501 ft 445 kts 159°
2026-05-07 03:50 39.10178 -104.34558 21960 ft 450 kts 165°
2026-05-07 03:50 39.07112 -104.33635 22478 ft 454 kts 167°
2026-05-07 03:50 39.04030 -104.32761 23050 ft 456 kts 167°
2026-05-07 03:50 39.00942 -104.31872 23609 ft 458 kts 166°
2026-05-07 03:51 38.97825 -104.30940 24082 ft 461 kts 166°
2026-05-07 03:51 38.94689 -104.29972 24521 ft 464 kts 165°
2026-05-07 03:51 38.91543 -104.28979 24978 ft 467 kts 165°
2026-05-07 03:51 38.88373 -104.27968 25425 ft 469 kts 165°
2026-05-07 03:52 38.85186 -104.26949 25866 ft 472 kts 165°
2026-05-07 03:52 38.81996 -104.25930 26304 ft 474 kts 165°
2026-05-07 03:52 38.78812 -104.24915 26729 ft 477 kts 165°
2026-05-07 03:52 38.75573 -104.23886 27157 ft 480 kts 165°
2026-05-07 03:53 38.72332 -104.22857 27565 ft 483 kts 165°
2026-05-07 03:53 38.69041 -104.21815 27971 ft 486 kts 165°
2026-05-07 03:53 38.65764 -104.20778 28368 ft 489 kts 165°
2026-05-07 03:53 38.62484 -104.19740 28746 ft 492 kts 165°
2026-05-07 03:54 38.59134 -104.18681 29147 ft 495 kts 165°
2026-05-07 03:54 38.55783 -104.17623 29551 ft 498 kts 165°
2026-05-07 03:54 38.52410 -104.16532 29924 ft 498 kts 162°
2026-05-07 03:54 38.49247 -104.14826 30164 ft 500 kts 146°
2026-05-07 03:55 38.46530 -104.12093 30417 ft 497 kts 135°
2026-05-07 03:55 38.43940 -104.09145 30642 ft 501 kts 135°
2026-05-07 03:55 38.41323 -104.06196 30953 ft 503 kts 136°
2026-05-07 03:55 38.38667 -104.03255 31299 ft 505 kts 137°
2026-05-07 03:56 38.35990 -104.00339 31623 ft 506 kts 137°
2026-05-07 03:56 38.33295 -103.97436 31948 ft 508 kts 137°
2026-05-07 03:56 38.30616 -103.94565 32222 ft 510 kts 138°
2026-05-07 03:56 38.27894 -103.91654 32492 ft 512 kts 138°
2026-05-07 03:57 38.25160 -103.88731 32737 ft 514 kts 138°
2026-05-07 03:57 38.22400 -103.85781 32992 ft 515 kts 138°
2026-05-07 03:57 38.19650 -103.82840 33312 ft 515 kts 138°
2026-05-07 03:57 38.16910 -103.79913 33680 ft 514 kts 138°
2026-05-07 03:58 38.14214 -103.77035 34056 ft 512 kts 139°
2026-05-07 03:58 38.11493 -103.74133 34394 ft 511 kts 139°
2026-05-07 03:58 38.08765 -103.71225 34649 ft 511 kts 139°
2026-05-07 03:58 38.06038 -103.68323 34891 ft 511 kts 139°
2026-05-07 03:59 38.03317 -103.65378 35146 ft 511 kts 138°
2026-05-07 03:59 38.00628 -103.62415 35414 ft 511 kts 138°
2026-05-07 03:59 37.97984 -103.59478 35678 ft 511 kts 138°
2026-05-07 03:59 37.95276 -103.56465 35938 ft 511 kts 139°
2026-05-07 04:00 37.92636 -103.53534 36189 ft 511 kts 139°
2026-05-07 04:00 37.89957 -103.50570 36460 ft 511 kts 139°
2026-05-07 04:00 37.87280 -103.47617 36714 ft 510 kts 139°
2026-05-07 04:00 37.84613 -103.44673 37087 ft 505 kts 140°
2026-05-07 04:01 37.81941 -103.41743 37226 ft 508 kts 140°
2026-05-07 04:01 37.76557 -103.35849 37228 ft 514 kts 140°
2026-05-07 04:02 37.71183 -103.29970 37213 ft 511 kts 141°
2026-05-07 04:02 37.65816 -103.24107 37207 ft 508 kts 141°
2026-05-07 04:03 37.60506 -103.18317 37209 ft 506 kts 142°
2026-05-07 04:03 37.55187 -103.12532 37213 ft 505 kts 142°
2026-05-07 04:04 37.49857 -103.06746 37215 ft 507 kts 142°
2026-05-07 04:04 37.44491 -103.00933 37217 ft 509 kts 143°
2026-05-07 04:05 37.39101 -102.95104 37211 ft 512 kts 143°